Jaime Gonzalez Airport
MUCF : now visible

Airfield :











YOU CAN JOIN US ON...

 
LOGIN :

Register | Disclaimer

   EN    FR    IT 

 









Legend :    VFR   Marginal VFR   IFR   Intensive IFR   Very Intensive IFR
Visi :
Ceiling :
>= 8 km
>= 3000ft
5 to 8 km
1000 to 3000 ft
1500m to 5 km
500 to 1000 ft
800 to 1500m
200 to 500 ft
< 800m
< 200 ft
Symbols :   Thunderstorms  Fog  Heavy snow  Heavy precipitations  Wind > 20 kt






- Airport Elevation : 102 ft
- IATA code : CFG


MUCF - Jaime Gonzalez

CURRENT METAR :
  • 041251Z 06007KT 030V090 9000 FEW020 BKN070 21/19 Q1019

EXPIRED METARs :
  • 041159Z AUTO 06006KT 20/19 Q1018
  • 041059Z AUTO 08008KT 040V130 21/19 Q1018

TAF MUCF
Valid from the 04 at 12:00 until the 05 at 00:00 UTC


041100Z 0412/0424 08006KT 9000 SCT020
BECMG 0413/0415 22008KT
MUFH FIR / North America



MET'MAP, your aeronautical weather chart ! - Copyright ORBIFLY December 2007 - Disclaimer

ORBIFLY MET'MAP TEAM :

Programming & Development : Alexandra Zaïnal
Concept & original design : Baudouin d'Aumeries
Assistance for programming : Marc-Olivier Méhu
Technical & hardware support : Manuel Goepfert

Contact : metmap@orbifly.com




SOURCES & CREDITS :

   NOAA       Earth
Advisory